| time (UTC) | temp F | wind direction | speed knots | gust knots | rain 1hr in | rain 24hr in | rain mn in | humidity % | barometer mb |
| 20260906112018 | 71 | 0 | 0.9 | 2.6 | 0.00 | 0.10 | 0.00 | 99 | 1011.6 |
| 20260906111020 | 71 | 48 | 0.0 | 2.6 | 0.00 | 0.10 | 0.00 | 99 | 1011.6 |
| 20260906110521 | 71 | 28 | 0.0 | 2.6 | 0.00 | 0.10 | 0.00 | 99 | 1011.5 |
| 20260906110037 | 71 | 0 | 0.0 | 1.7 | 0.00 | 0.10 | 0.00 | 99 | 1011.5 |
| 20260906105518 | 71 | 0 | 0.0 | 0.0 | 0.00 | 0.10 | 0.00 | 99 | 1011.5 |
| 20260906105019 | 71 | 0 | 0.0 | 0.0 | 0.00 | 0.10 | 0.00 | 99 | 1011.5 |
| 20260906104537 | 71 | 0 | 0.0 | 0.0 | 0.00 | 0.10 | 0.00 | 99 | 1011.4 |
| 20260906104016 | 71 | 0 | 0.0 | 0.0 | 0.00 | 0.10 | 0.00 | 99 | 1011.3 |
| 20260906102523 | 71 | 0 | 0.0 | 1.7 | 0.00 | 0.10 | 0.00 | 99 | 1011.3 |
| 20260906101020 | 71 | 30 | 1.7 | 2.6 | 0.00 | 0.10 | 0.00 | 99 | 1011.0 |
| 20260906100523 | 71 | 30 | 0.9 | 1.7 | 0.00 | 0.10 | 0.00 | 99 | 1011.0 |
| 20260906100037 | 71 | 30 | 0.0 | 0.9 | 0.00 | 0.10 | 0.00 | 99 | 1010.9 |
| 20260906095522 | 71 | 0 | 0.0 | 0.9 | 0.00 | 0.10 | 0.00 | 99 | 1010.8 |
| 20260906095019 | 71 | 0 | 0.0 | 0.9 | 0.00 | 0.10 | 0.00 | 99 | 1010.9 |
| 20260906094543 | 71 | 30 | 0.0 | 0.0 | 0.00 | 0.10 | 0.00 | 99 | 1010.7 |
| 20260906092520 | 71 | 0 | 0.0 | 0.9 | 0.00 | 0.10 | 0.00 | 99 | 1010.6 |
| 20260906092016 | 71 | 0 | 0.0 | 2.6 | 0.00 | 0.10 | 0.00 | 99 | 1010.7 |
| 20260906091538 | 71 | 0 | 0.0 | 2.6 | 0.00 | 0.10 | 0.00 | 99 | 1010.6 |
| 20260906091018 | 71 | 30 | 0.9 | 2.6 | 0.00 | 0.10 | 0.00 | 99 | 1010.6 |
| 20260906090519 | 71 | 30 | 0.9 | 2.6 | 0.00 | 0.10 | 0.00 | 99 | 1010.6 |
| 20260906085022 | 72 | 0 | 0.0 | 0.9 | 0.00 | 0.10 | 0.00 | 99 | 1010.8 |
| 20260906084025 | 72 | 30 | 0.0 | 2.6 | 0.00 | 0.10 | 0.00 | 99 | 1010.8 |
| 20260906083519 | 72 | 30 | 0.9 | 2.6 | 0.00 | 0.10 | 0.00 | 99 | 1010.7 |
| 20260906083045 | 72 | 91 | 0.0 | 3.5 | 0.00 | 0.10 | 0.00 | 99 | 1010.7 |
| 20260906082519 | 72 | 0 | 0.0 | 3.5 | 0.00 | 0.10 | 0.00 | 99 | 1010.8 |
| 20260906082019 | 72 | 26 | 1.7 | 3.5 | 0.00 | 0.10 | 0.00 | 99 | 1010.7 |
| 20260906081538 | 72 | 0 | 0.0 | 1.7 | 0.00 | 0.10 | 0.00 | 99 | 1010.7 |
| 20260906081016 | 72 | 0 | 0.0 | 3.5 | 0.00 | 0.10 | 0.00 | 99 | 1010.6 |
| 20260906075522 | 72 | 0 | 1.7 | 2.6 | 0.00 | 0.10 | 0.00 | 99 | 1010.7 |
| 20260906075020 | 72 | 0 | 0.0 | 0.9 | 0.00 | 0.10 | 0.00 | 99 | 1010.8 |
| 20260906074021 | 72 | 0 | 0.9 | 1.7 | 0.00 | 0.10 | 0.00 | 99 | 1010.7 |
| 20260906073520 | 72 | 0 | 0.0 | 1.7 | 0.00 | 0.10 | 0.00 | 99 | 1010.7 |
| 20260906073037 | 72 | 0 | 0.0 | 1.7 | 0.00 | 0.10 | 0.00 | 99 | 1010.7 |
| 20260906072518 | 72 | 311 | 0.9 | 1.7 | 0.00 | 0.10 | 0.00 | 99 | 1010.7 |
| 20260906072019 | 72 | 0 | 0.0 | 1.7 | 0.00 | 0.10 | 0.00 | 99 | 1010.8 |
| 20260906071536 | 72 | 0 | 0.0 | 1.7 | 0.00 | 0.10 | 0.00 | 99 | 1010.8 |
| 20260906071020 | 72 | 0 | 0.0 | 1.7 | 0.00 | 0.10 | 0.00 | 99 | 1010.9 |
| 20260906070518 | 72 | 0 | 0.0 | 2.6 | 0.00 | 0.10 | 0.00 | 99 | 1010.9 |
| 20260906065520 | 72 | 323 | 0.9 | 3.5 | 0.00 | 0.10 | 0.00 | 99 | 1010.9 |
| 20260906065019 | 72 | 323 | 0.9 | 5.2 | 0.00 | 0.10 | 0.00 | 99 | 1010.8 |
| 20260906064536 | 73 | 20 | 1.7 | 6.1 | 0.00 | 0.10 | 0.00 | 99 | 1010.8 |
| 20260906064017 | 73 | 340 | 2.6 | 6.1 | 0.00 | 0.10 | 0.00 | 99 | 1011.0 |
| 20260906063519 | 73 | 355 | 2.6 | 5.2 | 0.00 | 0.10 | 0.00 | 99 | 1011.1 |
| 20260906061020 | 73 | 0 | 0.9 | 4.3 | 0.00 | 0.10 | 0.00 | 99 | 1011.0 |
| 20260906060520 | 73 | 346 | 1.7 | 4.3 | 0.00 | 0.10 | 0.00 | 99 | 1011.2 |
| 20260906060044 | 73 | 331 | 2.6 | 4.3 | 0.00 | 0.10 | 0.00 | 99 | 1011.1 |
| 20260906055519 | 73 | 307 | 2.6 | 4.3 | 0.00 | 0.10 | 0.00 | 99 | 1011.1 |
| 20260906055019 | 73 | 333 | 0.9 | 4.3 | 0.00 | 0.10 | 0.00 | 99 | 1011.1 |
| 20260906054542 | 73 | 352 | 1.7 | 3.5 | 0.00 | 0.10 | 0.00 | 99 | 1011.2 |
| 20260906051021 | 74 | 311 | 2.6 | 7.8 | 0.00 | 0.10 | 0.00 | 99 | 1010.7 |
| 20260906050525 | 74 | 307 | 3.5 | 7.8 | 0.00 | 0.10 | 0.00 | 99 | 1010.7 |
| 20260906050040 | 74 | 312 | 3.5 | 7.0 | 0.00 | 0.10 | 0.00 | 98 | 1010.8 |
| 20260906045521 | 74 | 330 | 2.6 | 5.2 | 0.00 | 0.10 | 0.00 | 98 | 1010.8 |
| 20260906045018 | 74 | 5 | 1.7 | 3.5 | 0.00 | 0.10 | 0.00 | 98 | 1011.0 |
| 20260906044537 | 74 | 305 | 0.9 | 2.6 | 0.00 | 0.10 | 0.00 | 99 | 1010.9 |
| 20260906044020 | 74 | 302 | 0.9 | 3.5 | 0.00 | 0.10 | 0.00 | 99 | 1011.1 |
| 20260906043516 | 75 | 0 | 0.9 | 5.2 | 0.00 | 0.10 | 0.00 | 99 | 1011.2 |
| 20260906042521 | 74 | 312 | 0.9 | 3.5 | 0.00 | 0.10 | 0.00 | 99 | 1011.4 |
| 20260906042020 | 74 | 0 | 0.0 | 2.6 | 0.00 | 0.10 | 0.00 | 99 | 1011.5 |
| 20260906041539 | 74 | 250 | 0.0 | 2.6 | 0.00 | 0.10 | 0.00 | 99 | 1011.6 |
| 20260906041020 | 74 | 0 | 0.9 | 2.6 | 0.00 | 0.10 | 0.00 | 99 | 1011.7 |
| 20260906040518 | 74 | 215 | 0.9 | 2.6 | 0.00 | 0.10 | 0.00 | 99 | 1012.0 |
| 20260906040038 | 74 | 273 | 0.0 | 2.6 | 0.00 | 0.10 | 0.00 | 99 | 1011.8 |
| 20260906034018 | 74 | 0 | 0.0 | 1.7 | 0.00 | 0.10 | 0.10 | 99 | 1011.9 |
| 20260906033518 | 74 | 0 | 0.0 | 2.6 | 0.00 | 0.10 | 0.10 | 99 | 1012.0 |
| 20260906032517 | 73 | 273 | 0.9 | 2.6 | 0.00 | 0.10 | 0.10 | 99 | 1012.1 |
| 20260906032021 | 74 | 0 | 0.0 | 1.7 | 0.00 | 0.10 | 0.10 | 99 | 1012.1 |
| 20260906031539 | 73 | 0 | 0.0 | 1.7 | 0.00 | 0.10 | 0.10 | 99 | 1012.3 |
| 20260906031018 | 73 | 273 | 0.0 | 1.7 | 0.00 | 0.10 | 0.10 | 99 | 1012.5 |
| 20260906030519 | 73 | 273 | 0.0 | 2.6 | 0.00 | 0.10 | 0.10 | 99 | 1012.3 |
| 20260906030039 | 73 | 0 | 0.0 | 2.6 | 0.00 | 0.10 | 0.10 | 98 | 1012.3 |
| 20260906024022 | 73 | 0 | 0.0 | 1.7 | 0.00 | 0.10 | 0.10 | 99 | 1012.1 |
| 20260906023518 | 73 | 119 | 0.0 | 2.6 | 0.00 | 0.10 | 0.10 | 98 | 1012.0 |
| 20260906022520 | 73 | 0 | 0.0 | 4.3 | 0.00 | 0.10 | 0.10 | 98 | 1012.2 |
| 20260906022018 | 73 | 212 | 0.9 | 4.3 | 0.00 | 0.10 | 0.10 | 98 | 1011.9 |
| 20260906021542 | 73 | 171 | 0.9 | 4.3 | 0.00 | 0.10 | 0.10 | 98 | 1012.0 |
| 20260906021020 | 73 | 0 | 0.0 | 2.6 | 0.00 | 0.10 | 0.10 | 98 | 1012.1 |
| 20260906020518 | 73 | 0 | 0.0 | 2.6 | 0.00 | 0.10 | 0.10 | 98 | 1012.4 |
| 20260906020039 | 73 | 184 | 0.0 | 2.6 | 0.00 | 0.10 | 0.10 | 98 | 1012.3 |
| 20260906014018 | 73 | 0 | 0.9 | 2.6 | 0.00 | 0.10 | 0.10 | 98 | 1012.7 |
| 20260906013518 | 73 | 102 | 0.9 | 2.6 | 0.00 | 0.10 | 0.10 | 98 | 1012.8 |
| 20260906013034 | 73 | 0 | 0.0 | 2.6 | 0.00 | 0.10 | 0.10 | 98 | 1012.7 |
| 20260906012516 | 73 | 0 | 0.9 | 3.5 | 0.00 | 0.10 | 0.10 | 98 | 1012.6 |
| 20260906010521 | 73 | 0 | 2.6 | 8.7 | 0.00 | 0.10 | 0.10 | 98 | 1012.2 |
| 20260906005520 | 73 | 100 | 2.6 | 7.0 | 0.00 | 0.10 | 0.10 | 98 | 1011.9 |
| 20260906005020 | 73 | 98 | 1.7 | 5.2 | 0.00 | 0.10 | 0.10 | 98 | 1011.5 |
| 20260906004549 | 73 | 91 | 0.9 | 5.2 | 0.00 | 0.10 | 0.10 | 98 | 1011.4 |
| 20260906004022 | 73 | 80 | 2.6 | 5.2 | 0.00 | 0.10 | 0.10 | 98 | 1011.4 |
| 20260906003518 | 73 | 78 | 1.7 | 2.6 | 0.00 | 0.10 | 0.10 | 97 | 1011.5 |
| 20260906003035 | 74 | 0 | 0.9 | 2.6 | 0.00 | 0.10 | 0.10 | 97 | 1011.6 |
| 20260906002019 | 74 | 0 | 0.0 | 2.6 | 0.00 | 0.10 | 0.10 | 97 | 1011.4 |
| 20260906001018 | 73 | 202 | 0.9 | 2.6 | 0.01 | 0.10 | 0.10 | 97 | 1011.3 |
| 20260906000520 | 73 | 0 | 0.9 | 2.6 | 0.02 | 0.10 | 0.10 | 97 | 1011.0 |
| 20260905235517 | 74 | 86 | 0.0 | 3.5 | 0.04 | 0.10 | 0.10 | 96 | 1011.1 |
| 20260905235021 | 73 | 0 | 0.9 | 3.5 | 0.06 | 0.10 | 0.10 | 96 | 1011.3 |
| 20260905234539 | 73 | 0 | 0.0 | 6.1 | 0.10 | 0.10 | 0.10 | 96 | 1011.6 |
| 20260905234018 | 73 | 0 | 0.9 | 7.8 | 0.10 | 0.10 | 0.10 | 96 | 1011.5 |
| 20260905232523 | 73 | 178 | 2.6 | 5.2 | 0.10 | 0.10 | 0.10 | 94 | 1011.8 |
| 20260905231024 | 74 | 0 | 0.9 | 6.1 | 0.09 | 0.09 | 0.09 | 94 | 1012.1 |
| 20260905230520 | 75 | 257 | 1.7 | 13.0 | 0.08 | 0.08 | 0.08 | 92 | 1012.5 |
| 20260905230041 | 75 | 0 | 4.3 | 15.6 | 0.06 | 0.06 | 0.06 | 92 | 1012.8 |
| 20260905225520 | 77 | 55 | 7.8 | 26.1 | 0.06 | 0.06 | 0.06 | 88 | 1012.6 |
| 20260905225018 | 80 | 344 | 10.4 | 26.9 | 0.03 | 0.03 | 0.03 | 82 | 1012.9 |
| 20260905224021 | 84 | 28 | 7.0 | 14.8 | 0.00 | 0.00 | 0.00 | 90 | 1012.7 |
| 20260905223519 | 84 | 300 | 2.6 | 10.4 | 0.00 | 0.00 | 0.00 | 90 | 1011.1 |
| 20260905223048 | 84 | 191 | 3.5 | 11.3 | 0.00 | 0.00 | 0.00 | 89 | 1010.3 |
| 20260905222517 | 85 | 218 | 5.2 | 11.3 | 0.00 | 0.00 | 0.00 | 89 | 1010.0 |
| 20260905222018 | 85 | 225 | 4.3 | 8.7 | 0.00 | 0.00 | 0.00 | 88 | 1010.2 |
| 20260905221542 | 85 | 196 | 2.6 | 7.0 | 0.00 | 0.00 | 0.00 | 87 | 1010.7 |
| 20260905221019 | 86 | 243 | 1.7 | 10.4 | 0.00 | 0.00 | 0.00 | 87 | 1010.7 |
| 20260905220519 | 86 | 229 | 5.2 | 10.4 | 0.00 | 0.00 | 0.00 | 86 | 1010.1 |
| 20260905215520 | 87 | 185 | 2.6 | 8.7 | 0.00 | 0.00 | 0.00 | 84 | 1010.0 |
| 20260905215019 | 87 | 164 | 4.3 | 8.7 | 0.00 | 0.00 | 0.00 | 83 | 1010.2 |
| 20260905214544 | 88 | 194 | 4.3 | 13.0 | 0.00 | 0.00 | 0.00 | 82 | 1009.9 |
| 20260905213519 | 90 | 239 | 4.3 | 7.8 | 0.00 | 0.00 | 0.00 | 79 | 1009.9 |
| 20260905212524 | 90 | 206 | 2.6 | 9.6 | 0.00 | 0.00 | 0.00 | 80 | 1009.9 |
| 20260905212019 | 89 | 242 | 4.3 | 9.6 | 0.00 | 0.00 | 0.00 | 80 | 1009.9 |
| 20260905211020 | 90 | 192 | 4.3 | 8.7 | 0.00 | 0.00 | 0.00 | 80 | 1010.1 |
| 20260905210521 | 91 | 183 | 3.5 | 7.8 | 0.00 | 0.00 | 0.00 | 80 | 1010.2 |
| 20260905210050 | 90 | 249 | 4.3 | 10.4 | 0.00 | 0.00 | 0.00 | 79 | 1010.1 |
| 20260905205518 | 90 | 300 | 3.5 | 10.4 | 0.00 | 0.00 | 0.00 | 80 | 1009.9 |
| 20260905205019 | 90 | 276 | 3.5 | 9.6 | 0.00 | 0.00 | 0.00 | 79 | 1009.8 |
| 20260905202520 | 90 | 206 | 5.2 | 12.2 | 0.00 | 0.00 | 0.00 | 79 | 1009.7 |
| 20260905202020 | 91 | 202 | 4.3 | 12.2 | 0.00 | 0.00 | 0.00 | 78 | 1009.8 |
| 20260905201018 | 90 | 185 | 6.1 | 13.0 | 0.00 | 0.00 | 0.00 | 78 | 1010.0 |
| 20260905200520 | 91 | 194 | 4.3 | 12.2 | 0.00 | 0.00 | 0.00 | 77 | 1010.0 |
| 20260905195520 | 91 | 225 | 7.0 | 10.4 | 0.00 | 0.00 | 0.00 | 77 | 1010.0 |
| 20260905195020 | 91 | 279 | 3.5 | 10.4 | 0.00 | 0.00 | 0.00 | 77 | 1010.0 |
| 20260905194538 | 91 | 187 | 6.1 | 11.3 | 0.00 | 0.00 | 0.00 | 77 | 1010.0 |
| 20260905194020 | 91 | 182 | 4.3 | 12.2 | 0.00 | 0.00 | 0.00 | 78 | 1010.0 |
| 20260905193518 | 90 | 165 | 6.1 | 12.2 | 0.00 | 0.00 | 0.00 | 78 | 1010.1 |
| 20260905192021 | 90 | 192 | 7.0 | 13.9 | 0.00 | 0.00 | 0.00 | 78 | 1010.4 |
| 20260905191020 | 90 | 238 | 7.0 | 14.8 | 0.00 | 0.00 | 0.00 | 78 | 1010.7 |
| 20260905190518 | 91 | 194 | 7.0 | 13.0 | 0.00 | 0.00 | 0.00 | 77 | 1010.7 |
| 20260905185519 | 92 | 221 | 6.1 | 11.3 | 0.00 | 0.00 | 0.00 | 75 | 1010.9 |
| 20260905185019 | 92 | 202 | 6.1 | 13.0 | 0.00 | 0.00 | 0.00 | 74 | 1010.9 |
| 20260905184549 | 93 | 165 | 4.3 | 13.0 | 0.00 | 0.00 | 0.00 | 74 | 1011.0 |
| 20260905184018 | 93 | 202 | 6.1 | 12.2 | 0.00 | 0.00 | 0.00 | 74 | 1011.1 |
| 20260905183518 | 93 | 205 | 5.2 | 10.4 | 0.00 | 0.00 | 0.00 | 73 | 1011.2 |
| 20260905182521 | 93 | 217 | 3.5 | 9.6 | 0.00 | 0.00 | 0.00 | 75 | 1011.2 |
| 20260905182023 | 92 | 201 | 5.2 | 9.6 | 0.00 | 0.00 | 0.00 | 74 | 1011.3 |
| 20260905181545 | 92 | 217 | 3.5 | 9.6 | 0.00 | 0.00 | 0.00 | 75 | 1011.4 |
| 20260905181018 | 92 | 187 | 2.6 | 9.6 | 0.00 | 0.00 | 0.00 | 75 | 1011.4 |
| 20260905180517 | 92 | 243 | 3.5 | 9.6 | 0.00 | 0.00 | 0.00 | 74 | 1011.5 |
| 20260905175525 | 94 | 236 | 2.6 | 7.8 | 0.00 | 0.00 | 0.00 | 72 | 1011.7 |
| 20260905175017 | 94 | 219 | 1.7 | 7.8 | 0.00 | 0.00 | 0.00 | 73 | 1011.7 |
| 20260905174018 | 94 | 30 | 2.6 | 6.1 | 0.00 | 0.00 | 0.00 | 70 | 1011.9 |
| 20260905173521 | 94 | 285 | 1.7 | 7.8 | 0.00 | 0.00 | 0.00 | 69 | 1011.9 |
| 20260905172519 | 93 | 290 | 2.6 | 8.7 | 0.00 | 0.00 | 0.00 | 69 | 1011.9 |
| 20260905172021 | 93 | 226 | 2.6 | 8.7 | 0.00 | 0.00 | 0.00 | 70 | 1012.0 |
| 20260905171019 | 93 | 342 | 2.6 | 7.0 | 0.00 | 0.00 | 0.00 | 69 | 1012.0 |
| 20260905165023 | 93 | 278 | 3.5 | 7.0 | 0.00 | 0.00 | 0.00 | 71 | 1012.4 |
| 20260905164022 | 92 | 284 | 3.5 | 7.8 | 0.00 | 0.00 | 0.00 | 71 | 1012.6 |
| 20260905163524 | 92 | 229 | 1.7 | 7.8 | 0.00 | 0.00 | 0.00 | 73 | 1012.6 |
| 20260905161540 | 90 | 302 | 3.5 | 7.8 | 0.00 | 0.00 | 0.00 | 75 | 1013.0 |
| 20260905161023 | 90 | 0 | 1.7 | 8.7 | 0.00 | 0.00 | 0.00 | 77 | 1013.0 |
| 20260905160520 | 89 | 208 | 4.3 | 9.6 | 0.00 | 0.00 | 0.00 | 76 | 1013.2 |
| 20260905155521 | 89 | 260 | 3.5 | 10.4 | 0.00 | 0.00 | 0.00 | 78 | 1013.2 |
| 20260905155019 | 89 | 274 | 3.5 | 9.6 | 0.00 | 0.00 | 0.00 | 77 | 1013.2 |
| 20260905154537 | 88 | 304 | 4.3 | 8.7 | 0.00 | 0.00 | 0.00 | 78 | 1013.4 |
| 20260905154017 | 89 | 315 | 4.3 | 9.6 | 0.00 | 0.00 | 0.00 | 79 | 1013.5 |
| 20260905152523 | 87 | 5 | 4.3 | 9.6 | 0.00 | 0.00 | 0.00 | 81 | 1013.6 |
| 20260905152018 | 87 | 325 | 5.2 | 8.7 | 0.00 | 0.00 | 0.00 | 81 | 1013.6 |
| 20260905151023 | 87 | 296 | 4.3 | 9.6 | 0.00 | 0.00 | 0.00 | 82 | 1013.6 |
| 20260905150524 | 86 | 290 | 2.6 | 9.6 | 0.00 | 0.00 | 0.00 | 83 | 1013.6 |
| 20260905150040 | 86 | 294 | 5.2 | 9.6 | 0.00 | 0.00 | 0.00 | 83 | 1013.7 |
| 20260905145520 | 86 | 297 | 3.5 | 9.6 | 0.00 | 0.00 | 0.00 | 83 | 1013.6 |
| 20260905145018 | 86 | 279 | 2.6 | 9.6 | 0.00 | 0.00 | 0.00 | 85 | 1013.7 |
| 20260905142525 | 85 | 9 | 3.5 | 8.7 | 0.00 | 0.00 | 0.00 | 87 | 1013.7 |
| 20260905142019 | 84 | 283 | 3.5 | 7.8 | 0.00 | 0.00 | 0.00 | 87 | 1013.7 |
| 20260905141538 | 84 | 323 | 3.5 | 7.8 | 0.00 | 0.00 | 0.00 | 88 | 1013.8 |
| 20260905135521 | 83 | 228 | 2.6 | 9.6 | 0.00 | 0.00 | 0.00 | 90 | 1013.9 |
| 20260905135021 | 83 | 330 | 3.5 | 9.6 | 0.00 | 0.00 | 0.00 | 90 | 1013.8 |
| 20260905134020 | 82 | 274 | 2.6 | 7.8 | 0.00 | 0.00 | 0.00 | 91 | 1013.9 |
| 20260905133521 | 82 | 275 | 3.5 | 8.7 | 0.00 | 0.00 | 0.00 | 92 | 1013.9 |
| 20260905133039 | 81 | 355 | 4.3 | 9.6 | 0.00 | 0.00 | 0.00 | 92 | 1013.8 |
| 20260905132519 | 81 | 320 | 4.3 | 9.6 | 0.00 | 0.00 | 0.00 | 92 | 1013.9 |
| 20260905132019 | 81 | 322 | 1.7 | 4.3 | 0.00 | 0.00 | 0.00 | 94 | 1014.0 |
| 20260905125518 | 80 | 319 | 4.3 | 9.6 | 0.00 | 0.00 | 0.00 | 96 | 1014.1 |
| 20260905125022 | 80 | 309 | 3.5 | 9.6 | 0.00 | 0.00 | 0.00 | 96 | 1014.2 |
| 20260905124020 | 79 | 240 | 1.7 | 8.7 | 0.00 | 0.00 | 0.00 | 97 | 1014.2 |
| 20260905123525 | 79 | 286 | 2.6 | 8.7 | 0.00 | 0.00 | 0.00 | 97 | 1014.1 |
| 20260905123101 | 78 | 219 | 2.6 | 8.7 | 0.00 | 0.00 | 0.00 | 98 | 1013.9 |
| 20260905122519 | 78 | 294 | 2.6 | 7.0 | 0.00 | 0.00 | 0.00 | 98 | 1013.9 |
| 20260905122018 | 78 | 264 | 2.6 | 7.0 | 0.00 | 0.00 | 0.00 | 98 | 1014.0 |
| 20260905115524 | 77 | 248 | 2.6 | 7.0 | 0.00 | 0.00 | 0.00 | 99 | 1014.0 |
| 20260905115021 | 77 | 306 | 1.7 | 7.8 | 0.00 | 0.00 | 0.00 | 99 | 1014.0 |